Adamsville, PA

8:29 AM EST on February 07, 2016 (GMT -0500)
Port Meadville

Weather History for KGKJ - March, 2013

Change the Weather History Date:

Sunday, March 3, 2013

  Actual Average Record
Temperature  
Mean Temperature 22 °F -  
Max Temperature 24 °F 43 °F 69 °F (1991)
Min Temperature 19 °F 20 °F -11 °F (1980)
Degree Days  
Heating Degree Days 44    
Moisture  
Dew Point 17 °F    
Average Humidity 83    
Maximum Humidity 93    
Minimum Humidity 74    
Precipitation  
Precipitation 0.00 in - - ()
Sea Level Pressure  
Sea Level Pressure 29.92 in    
Wind  
Wind Speed 7 mph (WNW)    
Max Wind Speed 12 mph    
Max Gust Speed 21 mph    
Visibility 2 miles    
Events Snow    
Averages and records for this station are not official NWS values.
T = Trace of Precipitation, MM = Missing Value Source: NWS Daily Summary

Daily Weather History Graph

Daily Weather History Graph

Search for Another Location

Airport or City:

Trip Planner

Search our weather history database for the weather conditions in past years. The results will help you decide how hot, cold, wet, or windy it might be!

Date:

Astronomy

Mar. 03, 2013 Rise Set
Actual Time 6:52 AM EST 6:13 PM EST
Civil Twilight 6:24 AM EST 6:41 PM EST
Nautical Twilight 5:52 AM EST 7:13 PM EST
Astronomical Twilight 5:19 AM EST 7:46 PM EST
Moon No Moon Rise 10:00 AM EST (3/3)
Length of Visible Light 12h 17m
Length of Day
11h 21m
Waning Gibbous, 64% of the Moon is Illuminated
Mar 3
Waning Gibbous
Mar 4
Last Quarter
Mar 11
New
Mar 19
First Quarter
Mar 27
Full

Hourly Weather History & Observations

Time (EST) Temp. Windchill Dew Point Humidity Pressure Visibility Wind Dir Wind Speed Gust Speed Precip Events Conditions
12:53 AM 21.9 °F 11.7 °F 17.1 °F 82% 29.95 in 7.0 mi NNW 9.2 mph - 0.00 in   Overcast
1:53 AM 21.0 °F 12.4 °F 17.1 °F 85% 29.95 in 3.0 mi NNW 6.9 mph - 0.00 in Snow Light Snow
2:47 AM 21.2 °F 13.6 °F 17.6 °F 86% 29.88 in 2.5 mi NNW 5.8 mph - 0.00 in Snow Light Snow
2:53 AM 21.0 °F 16.2 °F 17.1 °F 85% 29.94 in 2.5 mi NNW 3.5 mph - 0.00 in Snow Light Snow
3:26 AM 21.2 °F 12.6 °F 17.6 °F 86% 29.87 in 3.0 mi NNW 6.9 mph - 0.00 in Snow Light Snow
3:53 AM 21.0 °F 14.6 °F 17.1 °F 85% 29.93 in 3.0 mi NW 4.6 mph - 0.00 in Snow Light Snow
4:53 AM 19.9 °F - 17.1 °F 89% 29.93 in 2.5 mi Calm Calm - 0.00 in Snow Light Snow
5:05 AM 19.4 °F 12.8 °F 17.6 °F 93% 29.87 in 3.0 mi WNW 4.6 mph - 0.00 in Snow Light Snow
5:21 AM 19.4 °F 12.8 °F 17.6 °F 93% 29.87 in 2.5 mi WNW 4.6 mph - 0.00 in Snow Light Snow
5:28 AM 19.4 °F 12.8 °F 17.6 °F 93% 29.87 in 3.0 mi West 4.6 mph - 0.00 in Snow Light Snow
5:38 AM 19.4 °F 12.8 °F 17.6 °F 93% 29.87 in 2.5 mi West 4.6 mph - 0.00 in Snow Light Snow
5:47 AM 21.2 °F 14.9 °F 17.6 °F 86% 29.87 in 1.8 mi West 4.6 mph - 0.00 in Snow Light Snow
6:53 AM 21.9 °F 13.4 °F 19.0 °F 89% 29.94 in 1.8 mi WNW 6.9 mph - 0.00 in Snow Light Snow
7:05 AM 21.2 °F 12.6 °F 19.4 °F 93% 29.88 in 2.0 mi WNW 6.9 mph - 0.00 in Snow Light Snow
7:16 AM 21.2 °F 10.9 °F 19.4 °F 93% 29.88 in 1.8 mi WNW 9.2 mph - 0.00 in Snow Light Snow
7:25 AM 21.2 °F 12.6 °F 19.4 °F 93% 29.88 in 2.5 mi WNW 6.9 mph - 0.00 in Snow Light Snow
7:38 AM 21.2 °F 11.7 °F 19.4 °F 93% 29.89 in 1.2 mi West 8.1 mph - 0.00 in Snow Light Snow
7:53 AM 21.9 °F 11.7 °F 19.0 °F 89% 29.95 in 0.8 mi West 9.2 mph - 0.00 in Snow Light Snow
8:40 AM 23.0 °F 15.8 °F 19.4 °F 86% 29.89 in 1.0 mi West 5.8 mph - 0.00 in Snow Light Snow
8:53 AM 23.0 °F 13.9 °F 19.0 °F 85% 29.94 in 1.2 mi West 8.1 mph - 0.00 in Snow Light Snow
9:53 AM 23.0 °F 13.1 °F 19.0 °F 85% 29.94 in 1.0 mi West 9.2 mph - 0.00 in Snow Light Snow
10:53 AM 24.1 °F 15.2 °F 18.0 °F 77% 29.94 in 1.2 mi WNW 8.1 mph 17.3 mph 0.00 in Snow Light Snow
11:53 AM 24.1 °F 16.0 °F 19.0 °F 81% 29.94 in 1.5 mi WNW 6.9 mph - 0.00 in Snow Light Snow
12:53 PM 24.1 °F 14.4 °F 19.0 °F 81% 29.94 in 1.2 mi West 9.2 mph - 0.00 in Snow Light Snow
1:06 PM 24.8 °F 16.1 °F 19.4 °F 80% 29.88 in 0.5 mi WNW 8.1 mph - 0.00 in Snow Snow
1:53 PM 24.1 °F 16.0 °F 19.0 °F 81% 29.93 in 1.0 mi West 6.9 mph - 0.00 in Snow Light Snow
2:00 PM 24.8 °F 15.3 °F 19.4 °F 80% 29.87 in 0.5 mi WNW 9.2 mph - 0.00 in Snow Snow
2:53 PM 24.1 °F 13.1 °F 19.0 °F 81% 29.93 in 0.8 mi WNW 11.5 mph - 0.00 in Snow Light Snow
3:04 PM 24.8 °F 15.3 °F 17.6 °F 74% 29.87 in 1.0 mi West 9.2 mph 16.1 mph 0.00 in Snow Light Snow
3:20 PM 24.8 °F 14.0 °F 17.6 °F 74% 29.88 in 0.8 mi NW 11.5 mph 19.6 mph 0.00 in Snow Light Snow
3:26 PM 24.8 °F 16.1 °F 17.6 °F 74% 29.88 in 1.0 mi NW 8.1 mph - 0.00 in Snow Light Snow
3:43 PM 24.8 °F 16.9 °F 17.6 °F 74% 29.88 in 1.2 mi Variable 6.9 mph 16.1 mph 0.00 in Snow Light Snow
3:53 PM 23.0 °F 11.7 °F 17.1 °F 78% 29.94 in 0.8 mi NW 11.5 mph 17.3 mph 0.00 in Snow Light Snow
4:05 PM 24.8 °F 16.9 °F 17.6 °F 74% 29.88 in 1.2 mi West 6.9 mph 16.1 mph 0.00 in Snow Light Snow
4:15 PM 23.0 °F 11.7 °F 15.8 °F 74% 29.88 in 1.2 mi WNW 11.5 mph 20.7 mph 0.00 in Snow Light Snow
4:45 PM 23.0 °F 14.7 °F 15.8 °F 74% 29.89 in 1.5 mi WNW 6.9 mph 18.4 mph 0.00 in Snow Light Snow
4:53 PM 23.0 °F 12.4 °F 16.0 °F 74% 29.95 in 1.0 mi West 10.4 mph - 0.00 in Snow Light Snow
5:29 PM 21.2 °F 12.6 °F 17.6 °F 86% 29.90 in 0.8 mi WNW 6.9 mph - 0.00 in Snow Light Snow
5:53 PM 21.9 °F 11.0 °F 17.1 °F 82% 29.97 in 0.8 mi WNW 10.4 mph - 0.00 in Snow Light Snow
6:19 PM 21.2 °F 10.9 °F 15.8 °F 80% 29.91 in 1.0 mi WNW 9.2 mph - 0.00 in Snow Light Snow
6:53 PM 21.9 °F 15.7 °F 17.1 °F 82% 29.98 in 1.2 mi WNW 4.6 mph - 0.00 in Snow Light Snow
7:19 PM 21.2 °F 11.7 °F 15.8 °F 80% 29.93 in 2.5 mi WNW 8.1 mph - 0.00 in Snow Light Snow
7:51 PM 21.2 °F 13.6 °F 15.8 °F 80% 29.93 in 3.0 mi WNW 5.8 mph - 0.00 in Snow Light Snow
7:53 PM 21.0 °F 13.4 °F 15.1 °F 78% 29.99 in 3.0 mi WNW 5.8 mph - 0.00 in Snow Light Snow
7:58 PM 21.2 °F 12.6 °F 15.8 °F 80% 29.93 in 2.5 mi WNW 6.9 mph - 0.00 in Snow Light Snow
8:21 PM 21.2 °F 13.6 °F 15.8 °F 80% 29.94 in 3.0 mi WNW 5.8 mph - 0.00 in Snow Light Snow
8:53 PM 21.0 °F 14.6 °F 15.1 °F 78% 30.01 in 10.0 mi West 4.6 mph - 0.00 in   Overcast
9:53 PM 19.9 °F 11.1 °F 14.0 °F 78% 30.01 in 10.0 mi West 6.9 mph - N/A   Overcast
10:27 PM 19.4 °F 12.8 °F 14.0 °F 80% 29.94 in 5.0 mi WNW 4.6 mph - N/A   Haze
10:34 PM 19.4 °F 12.8 °F 14.0 °F 80% 29.94 in 5.0 mi West 4.6 mph - N/A   Haze
10:41 PM 19.4 °F 11.5 °F 15.8 °F 86% 29.94 in 4.0 mi WNW 5.8 mph - 0.00 in Snow Light Snow
10:53 PM 19.9 °F 12.1 °F 15.1 °F 81% 30.00 in 3.0 mi West 5.8 mph - 0.00 in Snow Light Snow
11:50 PM 19.4 °F 10.4 °F 15.8 °F 86% 29.94 in 2.5 mi WNW 6.9 mph - 0.00 in Snow Light Snow
11:53 PM 19.9 °F 11.1 °F 15.1 °F 81% 30.00 in 2.5 mi Variable 6.9 mph - 0.00 in Snow Light Snow